Tracking 30261 objects as of 18-Feb-2025
HD Live streaming from Space Station
objects crossing your sky now

STARLINK-5174

Track STARLINK-5174 now!
10-day predictions
STARLINK-5174 is classified as:


NORAD ID: 54067
Int'l Code: 2022-136S
Perigee: 545.9 km
Apogee: 547.9 km
Inclination: 53.2 °
Period: 95.4 minutes
Semi major axis: 6917 km
RCS: Unknown
Launch date: October 20, 2022
Source: United States (US)
Launch site: AIR FORCE EASTERN TEST RANGE (AFETR)
Your satellite tracking list
Your tracking list is empty




NASA's NSSDC Master Catalog

Two Line Element Set (TLE):
1 54067U 22136S   25049.01025725 -.00000918  00000-0 -39594-4 0  9992
2 54067  53.2163 270.7867 0001434  89.6364 270.4793 15.08841349129253
Source of the keplerian elements: AFSPC